Home   Weather   Barcelona   Past weeks
Flag for Colombia

Past Weather in Barcelona, Colombia — Yesterday and Last 2 Weeks

Now
61 °F

Broken clouds.


Feels Like: 61 °F
Forecast: 80 / 63 °F
Wind: 5 mph from Northeast

Location: Rionegro / J. M. Cordova

Current Time: Jul 10, 2020 at 8:41:50 am

Latest Report: Jul 10, 2020 at 8:00 am


Visibility: N/A

Pressure: 30.31 "Hg

Humidity: 88%

Dew Point: 57 °F

Location of BarcelonaLocation

Past Weather in Barcelona — Graph

°F

Barcelona Temperature Yesterday

Maximum temperature yesterday: 73 °F (at 1:00 pm)
Minimum temperature yesterday: 54 °F (at 6:00 am)
Average temperature yesterday: 63 °F

High & Low Weather Summary for the Past Weeks

 TemperatureHumidityPressure
High77 °F (Jun 30, 3:00 pm)100% (Jun 25, 7:00 am)30.37 "Hg (Jun 25, 7:00 am)
Low54 °F (Jun 29, 2:00 am)42% (Jun 30, 3:00 pm)30.17 "Hg (Jun 27, 4:00 pm)
Average62 °F84%30.27 "Hg
* Reported Jun 25 7:00 am — Jul 10 7:00 am, Barcelona. Weather by CustomWeather, © 2020

Note: Actual official high and low records may vary slightly from our data, if they occured in-between our weather recording intervals... More about our weather records

Barcelona Weather History for the Previous 24 Hours

Scroll right to see more
 ConditionsComfort  
Time TempWeatherWind HumidityBarometerVisibility
7:00 am
Fri, Jul 10
57 °FRain. Broken clouds.3 mph94%30.29 "HgN/A
6:00 am55 °FPassing clouds.No wind100%30.27 "HgN/A
5:00 am57 °FPassing clouds.5 mph100%30.27 "Hg5 mi
4:00 am57 °FPartly cloudy.3 mph100%30.26 "Hg4 mi
3:00 am57 °FScattered showers. Partly cloudy.5 mph100%30.27 "HgN/A
2:00 am59 °FPartly cloudy.5 mph100%30.28 "HgN/A
1:00 am57 °FPassing clouds.5 mph100%30.28 "HgN/A
12:00 am59 °FPassing clouds.5 mph94%N/AN/A
11:00 pm
Thu, Jul 9
59 °FScattered showers. Passing clouds.No wind100%30.30 "HgN/A
10:00 pm61 °FScattered showers. Passing clouds.6 mph94%30.31 "HgN/A
9:00 pm61 °FPassing clouds.2 mph94%30.29 "HgN/A
8:00 pm63 °FPassing clouds.2 mph88%30.24 "HgN/A
7:00 pm64 °FPassing clouds.5 mph83%30.24 "HgN/A
6:00 pm66 °FPartly sunny.5 mph56%30.22 "HgN/A
5:00 pm72 °FScattered clouds.7 mph50%30.20 "HgN/A
4:00 pm73 °FPassing clouds.7 mph47%30.19 "HgN/A
3:00 pm73 °FScattered clouds.8 mph47%30.20 "HgN/A
2:00 pm73 °FScattered clouds.8 mph50%30.22 "HgN/A
1:00 pm73 °FScattered clouds.8 mph50%30.26 "HgN/A
12:00 pm72 °FScattered clouds.7 mph53%30.29 "HgN/A
11:00 am70 °FScattered clouds.3 mph57%30.30 "HgN/A
10:00 am66 °FPartly sunny.3 mph64%30.31 "HgN/A
9:00 am63 °FPartly sunny.2 mph83%30.33 "HgN/A
8:00 am57 °FFog.2 mph100%30.33 "Hg3 mi
Weather by CustomWeather, © 2020

See weather overview